Indianapolis, IN

6:54 PM EST on February 22, 2017 (GMT -0500)
Indianapolis International

Weather History for KIND - February, 2015

Change the Weather History Date:

Saturday, February 28, 2015

  Actual Average Record
Temperature  
Mean Temperature 16 °F 36 °F  
Max Temperature 25 °F 45 °F 68 °F (1895)
Min Temperature 7 °F 28 °F 2 °F (1993)
Degree Days  
Heating Degree Days 49 29  
Month to date heating degree days 1249 922  
Since 1 July heating degree days 4726 4143  
Cooling Degree Days 0 0  
Month to date cooling degree days 0 0  
Year to date cooling degree days 0 0  
Moisture  
Dew Point 8 °F    
Average Humidity 65    
Maximum Humidity 84    
Minimum Humidity 45    
Precipitation  
Precipitation 0.23 in 0.09 in 1.17 in (2011)
Month to date precipitation 1.34 2.32  
Year to date precipitation 3.15 4.98  
Snow  
Snow 2.00 in 0.20 in 5.40 in (1984)
Month to date snowfall 13.8 6.5  
Since 1 July snowfall 19.7 23.1  
Snow Depth 4.00 in    
Sea Level Pressure  
Sea Level Pressure 30.62 in    
Wind  
Wind Speed 8 mph (East)    
Max Wind Speed 14 mph    
Max Gust Speed 19 mph    
Visibility 7 miles    
Events Fog , Snow    
T = Trace of Precipitation, MM = Missing Value Source: NWS Daily Summary

Daily Weather History Graph

Daily Weather History Graph

Search for Another Location

Airport or City:

Trip Planner

Search our weather history database for the weather conditions in past years. The results will help you decide how hot, cold, wet, or windy it might be!

Date:

Astronomy

Feb. 28, 2015 Rise Set
Actual Time 7:20 AM EST 6:35 PM EST
Civil Twilight 6:52 AM EST 7:03 PM EST
Nautical Twilight 6:21 AM EST 7:34 PM EST
Astronomical Twilight 5:50 AM EST 8:05 PM EST
Moon 2:17 PM EST (2/28) 3:58 AM EST (2/28)
Length of Visible Light 12h 10m
Length of Day
11h 15m
Waxing Gibbous, 78% of the Moon is Illuminated
Feb 28
Waxing Gibbous
Mar 5
Full
Mar 13
Last Quarter
Mar 20
New
Mar 27
First Quarter

Hourly Weather History & Observations

Time (EST) Temp. Windchill Dew Point Humidity Pressure Visibility Wind Dir Wind Speed Gust Speed Precip Events Conditions
12:54 AM 9.0 °F 2.4 °F -0.9 °F 64% 30.70 in 10.0 mi NNE 3.5 mph - N/A   Scattered Clouds
1:54 AM 7.0 °F -4.5 °F -0.9 °F 70% 30.70 in 10.0 mi NE 6.9 mph - N/A   Scattered Clouds
2:54 AM 7.0 °F -4.5 °F -0.0 °F 73% 30.71 in 10.0 mi NE 6.9 mph - N/A   Mostly Cloudy
3:54 AM 7.0 °F -4.5 °F -0.9 °F 70% 30.70 in 10.0 mi NE 6.9 mph - N/A   Mostly Cloudy
4:54 AM 9.0 °F -0.9 °F 1.0 °F 70% 30.69 in 10.0 mi ENE 5.8 mph - N/A   Mostly Cloudy
5:54 AM 10.0 °F -0.9 °F 1.9 °F 70% 30.71 in 10.0 mi NE 6.9 mph - N/A   Overcast
6:54 AM 12.0 °F 2.7 °F 1.0 °F 61% 30.73 in 10.0 mi East 5.8 mph - N/A   Overcast
7:54 AM 12.0 °F 4.1 °F 1.9 °F 64% 30.74 in 10.0 mi East 4.6 mph - N/A   Overcast
8:54 AM 14.0 °F 2.0 °F 1.0 °F 56% 30.75 in 10.0 mi ESE 9.2 mph - N/A   Overcast
9:54 AM 16.0 °F 3.6 °F 3.0 °F 57% 30.74 in 10.0 mi SE 10.4 mph - N/A   Overcast
10:54 AM 18.0 °F 8.7 °F 3.0 °F 52% 30.75 in 10.0 mi ESE 6.9 mph - N/A   Overcast
11:54 AM 19.9 °F 9.3 °F 5.0 °F 52% 30.72 in 10.0 mi ESE 9.2 mph - N/A   Overcast
12:54 PM 21.9 °F 10.4 °F 5.0 °F 48% 30.69 in 10.0 mi ESE 11.5 mph - N/A   Mostly Cloudy
1:54 PM 23.0 °F 11.7 °F 5.0 °F 46% 30.66 in 10.0 mi SE 11.5 mph - N/A   Scattered Clouds
2:54 PM 25.0 °F 14.8 °F 7.0 °F 46% 30.61 in 10.0 mi East 10.4 mph - N/A   Mostly Cloudy
3:54 PM 24.1 °F 13.7 °F 6.1 °F 46% 30.59 in 10.0 mi ESE 10.4 mph - N/A   Overcast
4:54 PM 24.1 °F 14.4 °F 6.1 °F 46% 30.59 in 10.0 mi East 9.2 mph - N/A   Overcast
5:54 PM 24.1 °F 14.4 °F 8.1 °F 51% 30.58 in 10.0 mi ESE 9.2 mph - N/A   Overcast
6:54 PM 24.8 °F 15.3 °F 8.6 °F 50% 30.51 in 6.0 mi ESE 9.2 mph - N/A Snow Light Snow
7:14 PM 23.0 °F 12.4 °F 12.9 °F 65% 30.50 in 2.5 mi East 10.4 mph - 0.00 in Snow Light Snow
7:41 PM 21.9 °F 12.5 °F 15.1 °F 75% 30.51 in 1.5 mi East 8.1 mph - 0.00 in Snow Light Snow
7:54 PM 21.2 °F 11.7 °F 15.8 °F 80% 30.50 in 1.2 mi East 8.1 mph - N/A Snow Light Snow
8:20 PM 21.0 °F 12.4 °F 17.1 °F 85% 30.50 in 0.8 mi East 6.9 mph - 0.02 in Snow Light Snow
8:54 PM 21.0 °F 13.4 °F 18.0 °F 88% 30.56 in 0.5 mi East 5.8 mph - 0.05 in Fog , Snow Snow
9:17 PM 21.0 °F 14.6 °F 18.0 °F 88% 30.52 in 0.5 mi East 4.6 mph - 0.02 in Fog , Snow Snow
9:54 PM 21.2 °F 12.6 °F 17.6 °F 86% 30.51 in 0.5 mi ESE 6.9 mph - N/A Fog , Snow Snow
10:52 PM 21.2 °F 10.9 °F 17.6 °F 86% 30.48 in 1.0 mi ESE 9.2 mph - 0.07 in Snow Light Snow
10:54 PM 21.0 °F 11.4 °F 18.0 °F 88% 30.52 in 1.0 mi ESE 8.1 mph - 0.07 in Snow Light Snow
11:31 PM 21.9 °F 14.5 °F 19.0 °F 89% 30.46 in 0.8 mi ESE 5.8 mph - 0.02 in Snow Light Snow
11:42 PM 21.9 °F 12.5 °F 18.0 °F 85% 30.45 in 0.8 mi ESE 8.1 mph - 0.03 in Snow Light Snow
11:54 PM 21.2 °F 12.6 °F 19.4 °F 93% 30.44 in 0.8 mi ESE 6.9 mph - N/A Snow Light Snow